Regional Weather Roundup
Issued by NWS

Home | Current Version | Previous Version | Graphics & Text | Print | Product List | Glossary Off
Versions: 1 2 3 4 5 6 7 8 9 10 11 12 13 14 15 16 17 18 19 20 21 22 23 24 25 26

905
ASUS43 KDMX 211707
RWRIA

WEATHER ROUNDUP FOR IOWA
NATIONAL WEATHER SERVICE DES MOINES IA
1200 PM CDT THU MAY 21 2015

NOTE: "FAIR" INDICATES FEW OR NO CLOUDS BELOW 12,000 FEET WITH NO
SIGNIFICANT WEATHER AND/OR OBSTRUCTIONS TO VISIBILITY.

* - THESE STATIONS ARE NOT NWS STATIONS...THUS NOT UNDER NWS
QUALITY CONTROL.  THEY ALSO DO NOT REPORT WEATHER SUCH
AS PRECIPITATION OR FOG.

IAZ001>003-012>014-020>022-031>034-043>046-211800-
   NORTHWEST IOWA

CITY           SKY/WX    TMP DP  RH WIND       PRES   REMARKS
CARROLL *      SUNNY     68  41  37 NW18      30.17S
CHEROKEE *     SUNNY     64  45  48 NW16      30.18S
DENISON *      SUNNY     66  41  39 NW13G21   30.18S
LE MARS *      SUNNY     66  43  42 NW15G25   30.20S
ORANGE CITY *  SUNNY     64  43  45 W20G25    30.17F
SHELDON *      SUNNY     68  36  30 NW22G28   30.15S
SIOUX CITY     SUNNY     69  37  30 NW16G22   30.20F
SPENCER        SUNNY     69  40  34 NW17G30   30.14F
STORM LAKE *   SUNNY     64  46  52 W18       30.18S
$$

IAZ055>058-069>071-079>083-090>094-211800-
   SOUTHWEST IOWA

CITY           SKY/WX    TMP DP  RH WIND       PRES   REMARKS
ATLANTIC *     SUNNY     64  45  48 NW14G22   30.21S
AUDUBON *      SUNNY     66  39  37 NW9       30.20S
CLARINDA *     SUNNY     64  46  52 NW10      30.24F
COUNCIL BLFS * SUNNY     63  46  55 NW9G16    30.24S
CRESTON *      SUNNY     61  46  59 W13G20    30.20F
HARLAN  *      SUNNY     64  45  48 NW16      30.24F
LAMONI         SUNNY     64  46  52 W12       30.20F
RED OAK *      SUNNY     64  45  48 W8G16     30.23S
SHENANDOAH *   SUNNY     63  45  51 W8G16     30.24F
$$

IAZ047>049-059>061-072>074-084-211800-
   CENTRAL IOWA

CITY           SKY/WX    TMP DP  RH WIND       PRES   REMARKS
AMES           SUNNY     66  44  45 NW13      30.14F
ANKENY *       SUNNY     64  46  52 W12G17    30.15F
CHARITON *     SUNNY     63  46  55 W12G20    30.18S
DES MOINES     MOSUNNY   68  43  40 NW14      30.16F
GRINNELL*      SUNNY     61  46  59 W9        30.15S
KNOXVILLE *    SUNNY     63  45  51 W14       30.15F
MARSHALLTOWN     N/A     63  46  54 W9        30.12F
PELLA *        SUNNY     63  48  59 W12       30.16F
PERRY *          N/A     66  43  42 NW15G22   30.16S
$$

IAZ004>006-015-016-023>025-035-036-211800-
   NORTH CENTRAL IOWA

CITY           SKY/WX    TMP DP  RH WIND       PRES   REMARKS
ALGONA *       MOSUNNY   70  37  30 NW21G28   30.11S
CLARION *      SUNNY     64  48  55 W16       30.12F
ESTHERVILLE    SUNNY     71  37  28 NW23G30   30.11S
FORT DODGE *   SUNNY     64  46  52 NW13G20   30.14F
MASON CITY     SUNNY     68  42  38 W17       30.09F
FOREST CITY *  SUNNY     64  41  42 W13G24    30.09F
IOWA FALLS *     N/A     64  45  48 W16G25    30.12F
$$

IAZ007>011-017>019-026>030-037>042-050>054-066-211800-
   NORTHEAST IOWA

CITY           SKY/WX    TMP DP  RH WIND       PRES   REMARKS
CEDAR RAPIDS   SUNNY     62  48  60 W10       30.12F
CHARLES CITY * SUNNY     66  41  39 SW10      30.08F
CLINTON *      SUNNY     63  43  48 W14       30.14F
DECORAH *      SUNNY     64  41  42 VRB5G13   30.05F
DUBUQUE        SUNNY     60  47  61 W12       30.10F
MONTICELLO *   SUNNY     61  48  63 W8G15     30.10F
OELWEIN *      SUNNY     61  50  67 SW10      30.10F
WATERLOO       SUNNY     63  48  58 W12       30.10F
$$

IAZ064-065-067-068-078-211800-
   EAST CENTRAL IOWA

CITY           SKY/WX    TMP DP  RH WIND       PRES   REMARKS
DAVENPORT      SUNNY     62  41  46 W13G21    30.13F
IOWA CITY      SUNNY     62  45  53 W12       30.14F
MT. PLEASANT * SUNNY     61  43  51 W12       30.16F
MUSCATINE *    SUNNY     63  41  45 SW8       30.14F
QUAD CITIES    SUNNY     63  40  42 W13G21    30.12F
$$

IAZ062-063-075>077-085>089-095>099-211800-
   SOUTHEAST IOWA

CITY           SKY/WX    TMP DP  RH WIND       PRES   REMARKS
BURLINGTON     SUNNY     61  44  53 W10       30.16F
FAIRFIELD *    SUNNY     61  43  51 W16       30.16F
FORT MADISON *   N/A     61  43  51 W7        30.18S
KEOKUK *       SUNNY     61  41  48 W9        30.17F
OSKALOOSA *      N/A     63  43  48 W10G18    30.15F
CENTERVILLE *  SUNNY     63  63 100 W9G16     30.20S
OTTUMWA        SUNNY     62  44  51 W13       30.15F
WASHINGTON *   SUNNY     61  41  48 W9G18     30.16F
$$

ABBREVIATIONS USED IN REMARKS
   TC - TEMPERATURES IN CELSIUS
  WCI - WIND CHILL INDEX
   HX - HEAT INDEX
  VSB - VISIBILITY
$$




USA.gov is the U.S. government's official web portal to all federal, state and local government web resources and services.